• Processing (Info)

  • MPEC 2020-E17 : 2019 NN36

    The following Minor Planet Electronic Circular may be linked-to from your own Web pages, but must not otherwise be redistributed electronically.

    A form allowing access to any MPEC is at the bottom of this page.


    Read MPEC 2020-E16 Read MPEC 2020-E18


    M.P.E.C. 2020-E17                                 Issued 2020 March 6, 01:39 UT
    
         The Minor Planet Electronic Circulars contain information on unusual
             minor planets and routine data on comets.  They are published
        on behalf of Division F of the International Astronomical Union by the
              Minor Planet Center, Smithsonian Astrophysical Observatory,
                              Cambridge, MA 02138, U.S.A.
    
                 Prepared using the Tamkin Foundation Computer Network
    
                                  MPC@CFA.HARVARD.EDU
                URL https://www.minorplanetcenter.net/    ISSN 1523-6714
    
                                    2019 NN36                                
    
    
    Observations:
         K19N36N  C2015 06 13.52743620 08 49.503-22 34 11.78         23.3 GVEE017F51
         K19N36N  C2015 06 13.53877920 08 48.886-22 34 16.33         23.1 GVEE017F51
         K19N36N  C2015 06 13.55008420 08 48.221-22 34 21.58         23.2 GVEE017F51
         K19N36N  C2015 06 13.56138820 08 47.588-22 34 27.11         23.5 GVEE017F51
         K19N36N  C2017 06 21.55560521 20 48.299-21 38 11.39         22.7 GVEE017F51
         K19N36N  C2017 06 21.56533721 20 48.030-21 38 15.94         22.2 GVEE017F51
         K19N36N  C2017 06 21.57506121 20 47.788-21 38 21.02         22.4 GVEE017F51
         K19N36N  C2017 06 21.58480521 20 47.478-21 38 25.41         22.1 GVEE017F51
         K19N36N  C2017 07 04.54400921 11 55.407-23 45 11.28         22.8 GVEE017F51
         K19N36N  C2017 07 04.56722821 11 53.979-23 45 26.91         22.1 GVEE017F51
         K19N36N  C2017 07 04.57884121 11 53.271-23 45 34.43         22.1 GVEE017F51
         K19N36N  C2017 08 15.36403920 05 38.300-31 11 09.96         22.0 GVEE017F51
         K19N36N  C2017 08 15.37457820 05 37.218-31 11 14.03         21.9 GVEE017F51
         K19N36N  C2017 08 15.38510520 05 36.140-31 11 17.97         21.5 GVEE017F51
         K19N36N  C2017 08 15.39563820 05 35.035-31 11 22.09         21.7 GVEE017F51
         K19N36N  C2019 07 02.55812722 43 39.241-18 07 48.00         22.5 GVEE017F51
         K19N36N  C2019 07 02.56926822 43 39.373-18 07 52.85         22.2 GVEE017F51
         K19N36N  C2019 07 02.58052222 43 39.517-18 07 57.78         22.4 GVEE017F51
         K19N36N  C2019 07 02.59170822 43 39.692-18 08 03.56         22.9 GVEE017F51
         K19N36N* C2019 07 06.56641 22 44 29.052-18 40 26.70         22.5 wUEE017F51
         K19N36N  C2019 07 06.57803 22 44 29.131-18 40 32.70         22.5 wUEE017F51
         K19N36N  C2019 07 06.58965 22 44 29.199-18 40 39.03         22.6 wUEE017F51
         K19N36N  C2019 07 29.47512522 37 01.937-23 27 12.42         21.5 GVEE017F51
         K19N36N  C2019 07 29.48537222 37 01.392-23 27 22.38         21.6 GVEE017F51
         K19N36N  C2019 07 29.49559722 37 00.813-23 27 32.37         21.2 GVEE017F51
         K19N36N  C2019 10 29.20739 21 03 46.001-32 07 21.28         21.5 wUEE017F51
         K19N36N  C2019 10 29.22581 21 03 46.905-32 07 11.13         21.4 wUEE017F51
         K19N36N  C2019 10 29.23504 21 03 47.373-32 07 06.20         21.4 wUEE017F51
         K19N36N  C2020 01 23.23176500 05 45.971-03 38 52.82         21.3 GVEE017F51
         K19N36N  C2020 01 23.23652800 05 46.795-03 38 42.67         21.2 GVEE017F51
         K19N36N  C2020 01 23.24127100 05 47.609-03 38 32.69         21.3 GVEE017F51
         K19N36N  C2020 02 29.11570 02 12 49.27 +24 23 08.5          20.6 GVEE017V00
         K19N36N  C2020 02 29.12468 02 12 51.69 +24 23 38.9          20.7 GVEE017V00
         K19N36N  C2020 02 29.13356 02 12 54.10 +24 24 08.8          20.7 GVEE017V00
         K19N36N  C2020 02 29.13990 02 12 55.80 +24 24 30.2          21.1 GVEE017V00
         K19N36N  C2020 02 29.15878 02 13 00.91 +24 25 33.1                VEE017I52
         K19N36N  C2020 02 29.16003 02 13 01.17 +24 25 37.4          21.1 GVEE017I52
         K19N36N  C2020 02 29.16128 02 13 01.55 +24 25 41.6                VEE017I52
         K19N36N  C2020 02 29.16254 02 13 01.82 +24 25 47.7                VEE017I52
         K19N36N  C2020 02 29.16380 02 13 02.22 +24 25 48.2          22.1 GVEE017I52
         K19N36N  C2020 02 29.16630 02 13 02.85 +24 25 56.8                VEE017I52
         K19N36N  C2020 02 29.16756 02 13 03.27 +24 26 02.6          21.8 GVEE017I52
         K19N36N  C2020 03 05.11990 02 37 13.44 +29 11 30.8          21.1 GVEE017G96
         K19N36N  C2020 03 05.12053 02 37 13.60 +29 11 33.3          21.1 GVEE017G96
         K19N36N  C2020 03 05.12128 02 37 13.82 +29 11 35.5          20.5 GVEE017G96
         K19N36N  C2020 03 05.12251 02 37 14.24 +29 11 39.2          21.0 GVEE017G96
         K19N36N  C2020 03 05.12326 02 37 14.44 +29 11 41.8          21.4 GVEE017G96
         K19N36N  C2020 03 05.12726 02 37 15.66 +29 11 55.6          21.8 GVEE017G96
         K19N36N  C2020 03 05.13154 02 37 16.97 +29 12 10.5          21.4 GVEE017G96
         K19N36N  C2020 03 05.13583 02 37 18.38 +29 12 26.8          20.6 GVEE017G96
         K19N36N  C2020 03 05.14923 02 37 22.49 +29 13 11.4                VEE017I52
         K19N36N  C2020 03 05.15258 02 37 23.54 +29 13 24.1                VEE017I52
         K19N36N  C2020 03 05.15592 02 37 24.63 +29 13 35.6                VEE017I52
         K19N36N  C2020 03 05.15926 02 37 25.67 +29 13 45.7          21.3 GVEE017I52
    
    Observer details:
    F51 Pan-STARRS 1, Haleakala.  Observers J. Bulger, K. Chambers, T. Lowe, A. 
       Schultz, M. Willman.  Measurers S. Chastel, M. Huber, Y. Ramanjooloo, R. 
       Wainscoat, R. Weryk, K. Chambers, T. de Boer, L. Denneau, J. Fairlamb, H. 
       Flewelling, C.-C. Lin, E. Magnier.  1.8-m Ritchey-Chretien + CCD.
    G96 Mt. Lemmon Survey.  Observer G. J. Leonard.  Measurers E. J. Christensen, 
       G. A. Farneth, D. C. Fuls, A. R. Gibbs, A. D. Grauer, H. Groeller, R. A. 
       Kowalski, S. M. Larson, G. J. Leonard, T. A. Pruyne, D. Rankin, R. L. Seaman,
        F. C. Shelly, K. W. Wierzchos.  1.5-m reflector + 10K CCD.
    I52 Steward Observatory, Mt. Lemmon Station.  Observers G. J. Leonard, T. A. 
       Pruyne.  Measurers E. J. Christensen, G. A. Farneth, D. C. Fuls, A. R. Gibbs,
        A. D. Grauer, H. Groeller, R. A. Kowalski, S. M. Larson, G. J. Leonard, T. 
       A. Pruyne, D. Rankin, R. L. Seaman, F. C. Shelly, K. W. Wierzchos.  1.0-m 
       reflector + CCD.
    V00 Kitt Peak-Bok.  Observers H. Groeller, J. V. Scotti.  Measurers E. J. 
       Christensen, G. A. Farneth, D. C. Fuls, A. R. Gibbs, A. D. Grauer, H. 
       Groeller, R. A. Kowalski, S. M. Larson, G. J. Leonard, T. A. Pruyne, D. 
       Rankin, R. L. Seaman, F. C. Shelly, K. W. Wierzchos.  2.25-m reflector + CCD.
    
    Orbital elements:
    2019 NN36                                                Earth MOID = 0.1232 AU
    Epoch 2020 May 31.0 TT = JDT 2459000.5                  Veres
    M  58.17080              (2000.0)            P               Q
    n   0.52865013     Peri.    8.40502     -0.23075327     -0.95791053
    a   1.5148065      Node    95.06337     +0.88245762     -0.27996343
    e   0.4538711      Incl.    9.87115     +0.40990423     +0.06346573
    P   1.86           H   19.7           G   0.15           U   1
    Residuals in seconds of arc
    150613 F51  0.2-  0.2-    190702 F51  0.1+  0.3-    200229 I52  1.0-  0.2+
    150613 F51  0.3+  0.3+    190706 F51  0.2-  0.0     200229 I52  0.4-  0.2+
    150613 F51  0.0   0.2+    190706 F51  0.0   0.2+    200229 I52 (1.4-  2.1+)
    150613 F51  0.2+  0.2-    190706 F51  0.1+  0.0     200229 I52 (0.6-  1.7-)
    170621 F51  0.2-  0.3-    190729 F51  0.2-  0.0     200229 I52  1.3-  1.5-
    170621 F51  0.2-  0.1+    190729 F51  0.1+  0.1-    200229 I52  0.2-  0.1+
    170621 F51  0.1+  0.1-    190729 F51  0.2-  0.2-    200305 G96  0.4+  0.2+
    170621 F51  0.5-  0.4+    191029 F51  0.2+  0.1+    200305 G96  0.1-  0.5+
    170704 F51  0.1+  0.1+    191029 F51  0.1+  0.1+    200305 G96  0.3-  0.1+
    170704 F51  0.0   0.2-    191029 F51  0.3+  0.1-    200305 G96  0.2+  0.4-
    170704 F51  0.0   0.1-    200123 F51  0.2+  0.0     200305 G96  0.2-  0.4-
    170815 F51  0.1-  0.1-    200123 F51  0.3+  0.2+    200305 G96  0.4-  0.5-
    170815 F51  0.0   0.0     200123 F51  0.3+  0.1+    200305 G96  0.7-  0.4-
    170815 F51  0.2+  0.1+    200229 V00  0.0   0.2+    200305 G96  0.4+  1.1+
    170815 F51  0.1+  0.0     200229 V00  0.1+  0.4+    200305 I52  0.4-  0.7-
    190702 F51  0.2+  0.1+    200229 V00  0.3+  0.4+    200305 I52  0.3-  0.5+
    190702 F51  0.1-  0.3+    200229 V00  0.1+  0.5+    200305 I52  0.4+  0.4+
    190702 F51  0.2-  0.4+    200229 I52  0.1+  0.1+    200305 I52  0.4+  1.0-
    
    Ephemeris:
    2019 NN36                a,e,i = 1.51, 0.45, 10                  q = 0.8273
    Date    TT    R. A. (2000) Decl.     Delta      r    Elong.  Phase     V
    2020 02 05    00 44 18.4 +04 31 43   0.6565  0.8307    56.6    82.1    21.3
    ...
    2020 02 20    01 35 19.7 +16 10 00   0.5440  0.8352    57.6    89.0    21.1
    ...
    2020 02 28    02 07 49.4 +23 20 18   0.4906  0.8549    59.7    90.6    21.0
    ...
    2020 03 05    02 36 36.6 +29 04 32   0.4560  0.8767    62.1    90.5    20.9
    2020 03 06    02 41 54.3 +30 02 59   0.4509  0.8808    62.6    90.4    20.9
    2020 03 07    02 47 22.0 +31 01 34   0.4459  0.8851    63.1    90.2    20.9
    ...
    2020 03 13    03 24 10.2 +36 49 58   0.4200  0.9136    66.7    88.3    20.7
    ...
    2020 03 21    04 26 41.5 +43 46 12   0.3981  0.9577    72.9    83.7    20.5
    ...
    2020 04 05    07 01 34.2 +49 05 18   0.4024  1.0533    86.2    71.4    20.3
    
    A. U. Tomatic                (C) Copyright 2020 MPC           M.P.E.C. 2020-E17
    


    Read MPEC 2020-E16 Read MPEC 2020-E18


    MPEC number:

    Enter an MPEC number in one of the following forms:

    • 1997-B01 (the full form)
    • J97B01 (the packed version of the full form)
    • B01 (the abbreviated form)